User: anonymous   Login
Location: Bou Ouachlou
(32.7770°N, 5.6009°W)
Time: 17:50:11
(UTC+00:00)
Language:

Nadezhda 3 Rocket - Orbit

View from above orbital plane
View from above orbital plane
View from above satellite
View from above satellite

Ground track
Ground track

The orbit data is extracted from the following two-line orbital elements,

1 21153U 91019B   20228.33234053  .00000154  00000-0  14303-3 0  9993
2 21153  82.9227  63.1791 0029559 160.3592  12.4422 13.75947339477517
Epoch (UTC): 15 August 2020 07:58:34
Eccentricity: 0.0029559
inclination: 82.9227°
perigee height: 956 km
apogee height: 1000 km
right ascension of ascending node: 63.1791°
argument of perigee: 160.3592°
revolutions per day: 13.75947339
mean anomaly at epoch: 12.4422°
orbit number at epoch: 47751

The dashed part of the orbit path shows where the satellite is in the earth's shadow,  

DLR